星链-5259 (STARLINK-5259 )

导读

STARLINK-5259是美国太空探索技术公司(SpaceX)星链(Starlink)星座的成员卫星,于2022年10月28日发射入轨,属于星链第二代组网卫星。它运行在近地轨道,配备星链 mini激光通信终端,支持星间高速互联,为全球提供高速低延迟互联网服务,弥补偏远地区网络覆盖缺口,是SpaceX构建全球巨型卫星星座的重要节点。

基本信息
目录编号:
54209
目录名称:
STARLINK-5259
国际标识:
2022-141BE
轨道中心:
EARTH
卫星名称:
星链-5259
卫星全名:
星链-5259 (STARLINK-5259 )
卫星状态:
在轨 (已飞行1326 天)
发射日期:
2022-10-28 UTC
国别 :
美国 (US)
星等 :
--
轨道信息
数据来源 国际轨道数据
星历时间: 2026-06-14T22:31:13+0800
15小时前
查看轨道信息
半长轴: 6917.889km
偏心率: 0.0001157
轨道倾角: 53.159°
近地点辐角 101.622°
升交点赤经 268.631°
平近点角 258.490°
近地点: 538.951km
远地点: 540.553km
周期: 95.438分钟
每日圈数: 15.088372
详细信息
固有亮度:
5
最大亮度:
2.5
卫星平台:
Starlink v1.5
覆盖范围:
全球
运营商:
太空探索技术公司
运营商所在国:
美国
制造商(研发单位):
太空探索技术公司
制造商所在国:
美国
使用方式:
暂无
卫星简介
星链(Starlink)计划是由太空探索技术公司(SpaceX)提出的一个巨型低轨卫星互联网星座项目,计划在2019年至2024年间在太空搭建由约1.2万颗卫星组成的“星链”网络,其中1584颗将部署在地球上空550千米处的近地轨道,并从2020年开始工作。该卫星仍在工作。
2D轨道图
3D轨道图
轨道高度分析图
轨道倾角分析图
轨道综合分析图
查看轨道综合分析图